Voltar ao catálogo

CZ-3C DEB

LostGTO
NORAD 39350·DEBRIS·🇨🇳 China

Lançado Oct 31, 2010 de Xichang Satellite Launch Center

Loading…

TLE

ObsoletoSource: Space-Track

Época: Jul 31, 2026, 11:37 UTC

1 39350U 10057Q   26212.48422147 -.00000120  00000-0  58210-3 0  9991
2 39350  20.3839  28.4699 7208937 295.7677  10.7226  2.22922984100968

Acompanhe CZ-3C DEB em tempo real com AllMySat

Download on the App Store